contact:dominique.lefevre@mio.osupytheas.fr, maurice.libes@osupytheas.fr, didier.mallarino@osupytheas.fr
Project:EMSO http://www.emso-fr.org/EMSO-France
Depth: 2436.0 m
Title:EMSO Ligure Ouest : Data MII capteur AQUADOPP
Date,Latitude,Longitude,X_East,Y_North,Z_Up,Amplitude_X,Amplitude_Y,Amplitude_Z,Batterie,SoundSpeed,Heading,Pitch,Roll,Pressure,TIS,Speed,Direction
, degrees North, degrees East, m.s-1, m.s-1,m.s-1, 1, 1, 1, Volt, m.s-1, degree, degree, degree, dbar, degree_C, m.s-1, degree
2023-11-01T00:04:03,42.805,6.029,0.011,0.023,-0.003,101.0,101.0,101.0,13.3,1505.2,342.7,-0.8,1.8,2471.561,13.29,0.025,25.6
2023-11-01T00:07:03,42.805,6.029,-0.018,0.045,-0.017,102.0,102.0,101.0,13.4,1505.2,340.3,-0.8,1.8,2471.568,13.29,0.048,338.2
2023-11-01T00:10:03,42.805,6.029,0.013,0.036,-0.013,101.0,101.0,101.0,13.4,1505.2,332.2,-0.7,1.9,2471.606,13.29,0.038,19.9
2023-11-01T00:13:03,42.805,6.029,0.017,0.018,0.004,103.0,102.0,101.0,13.3,1505.2,349.8,-0.8,1.8,2471.525,13.29,0.024,43.4
2023-11-01T00:16:03,42.805,6.029,-0.001,0.0,-0.05,102.0,101.0,100.0,13.3,1505.2,344.8,-0.8,1.8,2471.537,13.29,0.001,270.0
2023-11-01T00:19:03,42.805,6.029,0.028,0.024,0.0,100.0,101.0,101.0,13.4,1505.2,353.4,-0.8,1.8,2471.555,13.29,0.036,49.4
2023-11-01T00:22:03,42.805,6.029,-0.02,0.05,-0.033,102.0,100.0,100.0,13.4,1505.2,343.6,-0.8,1.8,2471.527,13.29,0.053,338.2
2023-11-01T00:25:03,42.805,6.029,-0.013,-0.003,-0.064,102.0,102.0,101.0,13.3,1505.2,338.4,-0.7,1.8,2471.522,13.29,0.013,257.0
2023-11-01T00:28:03,42.805,6.029,0.001,0.034,-0.016,101.0,101.0,102.0,13.4,1505.2,357.1,-0.8,1.8,2471.522,13.29,0.034,1.7
2023-11-01T00:31:03,42.805,6.029,0.01,0.024,0.018,101.0,101.0,101.0,13.4,1505.2,351.7,-0.8,1.8,2471.527,13.29,0.026,22.6
2023-11-01T00:34:03,42.805,6.029,0.004,0.015,-0.004,102.0,101.0,101.0,13.4,1505.2,352.2,-0.8,1.8,2471.528,13.29,0.015,14.9
2023-11-01T00:37:03,42.805,6.029,-0.014,0.027,-0.02,103.0,100.0,102.0,13.3,1505.2,336.6,-0.8,1.8,2471.522,13.29,0.03,332.6
2023-11-01T00:40:03,42.805,6.029,0.019,0.036,-0.003,101.0,102.0,101.0,13.4,1505.2,359.0,-0.7,1.8,2471.482,13.29,0.04,27.8
2023-11-01T00:43:03,42.805,6.029,0.019,0.012,0.002,102.0,100.0,100.0,13.4,1505.2,344.2,-0.8,1.8,2471.535,13.29,0.022,57.7
2023-11-01T00:46:03,42.805,6.029,0.012,0.032,-0.051,101.0,101.0,100.0,13.4,1505.2,358.2,-0.8,1.9,2471.53,13.29,0.034,20.6
2023-11-01T00:49:03,42.805,6.029,0.011,0.045,-0.003,101.0,100.0,102.0,13.4,1505.2,339.7,-0.8,1.8,2471.535,13.29,0.046,13.7
2023-11-01T00:52:03,42.805,6.029,-0.026,0.037,-0.016,102.0,100.0,101.0,13.4,1505.2,335.0,-0.8,1.8,2471.512,13.29,0.045,324.9
2023-11-01T00:55:03,42.805,6.029,0.007,0.027,-0.053,101.0,101.0,100.0,13.4,1505.2,333.8,-0.7,1.8,2471.52,13.29,0.027,14.5
2023-11-01T00:58:03,42.805,6.029,-0.004,0.017,-0.045,101.0,101.0,100.0,13.3,1505.2,342.4,-0.7,1.8,2471.532,13.29,0.017,346.8
2023-11-01T01:04:03,42.805,6.029,-0.017,0.034,-0.041,102.0,104.0,103.0,13.3,1505.2,356.1,-0.8,1.8,2471.518,13.29,0.038,333.4
2023-11-01T01:07:03,42.805,6.029,-0.011,0.031,-0.02,100.0,101.0,100.0,13.3,1505.2,340.4,-0.8,1.8,2471.538,13.29,0.032,340.5
2023-11-01T01:10:03,42.805,6.029,-0.002,0.016,-0.011,101.0,100.0,100.0,13.4,1505.2,335.4,-0.8,1.8,2471.514,13.29,0.016,352.9
2023-11-01T01:13:03,42.805,6.029,0.011,0.018,-0.026,101.0,100.0,100.0,13.4,1505.2,358.2,-0.8,1.8,2471.509,13.29,0.021,31.4
2023-11-01T01:16:03,42.805,6.029,-0.002,0.026,-0.03,101.0,100.0,100.0,13.4,1505.2,340.1,-0.8,1.8,2471.508,13.29,0.026,355.6
2023-11-01T01:19:03,42.805,6.029,-0.022,0.034,-0.032,102.0,101.0,100.0,13.4,1505.2,333.0,-0.8,1.8,2471.481,13.29,0.04,327.1
2023-11-01T01:22:03,42.805,6.029,0.027,0.007,-0.02,102.0,100.0,101.0,13.4,1505.2,358.0,-0.8,1.8,2471.51,13.29,0.027,75.5
2023-11-01T01:25:03,42.805,6.029,0.002,0.019,-0.026,101.0,102.0,100.0,13.4,1505.2,338.0,-0.7,1.8,2471.515,13.29,0.019,6.0
2023-11-01T01:28:03,42.805,6.029,0.001,0.016,-0.034,100.0,101.0,100.0,13.4,1505.2,334.1,-0.8,1.8,2471.491,13.29,0.016,3.6
2023-11-01T01:31:03,42.805,6.029,-0.001,0.03,-0.019,100.0,104.0,100.0,13.4,1505.2,351.1,-0.7,1.8,2471.503,13.29,0.03,358.1
2023-11-01T01:34:03,42.805,6.029,0.027,0.01,0.0,101.0,101.0,100.0,13.4,1505.2,341.8,-0.8,1.8,2471.508,13.29,0.028,69.7
2023-11-01T01:37:03,42.805,6.029,-0.033,0.02,-0.065,101.0,101.0,100.0,13.4,1505.2,334.1,-0.8,1.8,2471.513,13.29,0.038,301.2
2023-11-01T01:40:03,42.805,6.029,0.0,0.02,-0.004,101.0,101.0,100.0,13.4,1505.2,352.7,-0.8,1.8,2471.5,13.29,0.02,0.0
2023-11-01T01:43:03,42.805,6.029,0.0,0.025,-0.018,102.0,101.0,101.0,13.3,1505.2,350.5,-0.8,1.8,2471.473,13.29,0.025,0.0
2023-11-01T01:46:03,42.805,6.029,-0.011,0.048,-0.007,102.0,101.0,101.0,13.4,1505.2,345.7,-0.8,1.8,2471.474,13.29,0.049,347.1
2023-11-01T01:49:03,42.805,6.029,0.027,0.01,-0.001,101.0,102.0,100.0,13.4,1505.2,357.0,-0.8,1.8,2471.452,13.29,0.028,69.7
2023-11-01T01:52:03,42.805,6.029,0.013,0.016,-0.015,102.0,101.0,101.0,13.4,1505.2,335.7,-0.8,1.8,2471.458,13.29,0.02,39.1
2023-11-01T01:55:03,42.805,6.029,0.019,0.021,-0.001,101.0,101.0,101.0,13.3,1505.2,0.0,-0.7,1.8,2471.481,13.29,0.028,42.1
2023-11-01T01:58:03,42.805,6.029,-0.027,0.038,-0.018,101.0,101.0,101.0,13.3,1505.2,345.9,-0.8,1.8,2471.503,13.29,0.046,324.6
2023-11-01T02:04:03,42.805,6.029,0.009,0.012,-0.02,101.0,100.0,101.0,13.4,1505.2,342.8,-0.8,1.8,2471.527,13.29,0.015,36.9
2023-11-01T02:07:03,42.805,6.029,0.021,0.03,-0.027,101.0,101.0,100.0,13.3,1505.2,350.3,-0.8,1.8,2471.514,13.29,0.036,35.0
2023-11-01T02:10:03,42.805,6.029,0.016,-0.002,-0.042,101.0,102.0,99.0,13.3,1505.2,337.3,-0.8,1.8,2471.538,13.29,0.016,97.1
2023-11-01T02:13:03,42.805,6.029,0.031,0.025,-0.009,100.0,103.0,100.0,13.3,1505.2,340.0,-0.8,1.8,2471.5,13.29,0.039,51.1
2023-11-01T02:16:03,42.805,6.029,0.019,0.035,0.036,101.0,100.0,101.0,13.4,1505.2,345.9,-0.7,1.8,2471.516,13.29,0.039,28.5
2023-11-01T02:19:03,42.805,6.029,-0.005,0.02,-0.078,100.0,101.0,101.0,13.3,1505.2,331.4,-0.8,1.8,2471.479,13.29,0.02,346.0
2023-11-01T02:22:03,42.805,6.029,0.001,0.022,-0.04,100.0,100.0,100.0,13.4,1505.2,358.2,-0.8,1.8,2471.507,13.29,0.022,2.6
2023-11-01T02:25:03,42.805,6.029,0.01,0.023,-0.001,102.0,100.0,102.0,13.3,1505.2,352.6,-0.8,1.8,2471.476,13.29,0.025,23.5
2023-11-01T02:28:03,42.805,6.029,-0.016,0.018,-0.028,102.0,102.0,99.0,13.4,1505.2,333.0,-0.8,1.8,2471.467,13.29,0.024,318.4
2023-11-01T02:31:03,42.805,6.029,0.001,0.014,-0.029,101.0,101.0,100.0,13.4,1505.2,0.0,-0.8,1.8,2471.492,13.29,0.014,4.1
2023-11-01T02:34:03,42.805,6.029,-0.029,0.044,-0.041,101.0,101.0,101.0,13.3,1505.2,351.3,-0.8,1.8,2471.486,13.29,0.052,326.6
2023-11-01T02:37:03,42.805,6.029,-0.006,0.056,0.008,100.0,103.0,101.0,13.4,1505.2,345.9,-0.8,1.8,2471.494,13.29,0.056,353.9
2023-11-01T02:40:03,42.805,6.029,-0.008,0.02,-0.037,100.0,101.0,100.0,13.3,1505.2,336.8,-0.8,1.8,2471.518,13.29,0.021,338.2
2023-11-01T02:43:03,42.805,6.029,0.007,0.016,-0.029,103.0,101.0,100.0,13.4,1505.2,353.0,-0.8,1.8,2471.46,13.29,0.017,23.6
2023-11-01T02:46:03,42.805,6.029,0.017,0.037,0.015,101.0,101.0,101.0,13.4,1505.2,345.5,-0.8,1.8,2471.476,13.29,0.04,24.7
2023-11-01T02:49:03,42.805,6.029,-0.008,0.031,-0.026,101.0,101.0,100.0,13.3,1505.2,334.9,-0.8,1.8,2471.463,13.29,0.032,345.5
2023-11-01T02:52:03,42.805,6.029,0.011,0.045,-0.003,103.0,101.0,100.0,13.3,1505.2,358.0,-0.7,1.8,2471.46,13.29,0.046,13.7
2023-11-01T02:55:03,42.805,6.029,0.01,-0.008,-0.06,100.0,102.0,101.0,13.3,1505.2,347.0,-0.7,1.8,2471.477,13.29,0.012,128.7
2023-11-01T02:58:03,42.805,6.029,-0.012,0.013,-0.048,100.0,102.0,100.0,13.3,1505.2,343.8,-0.7,1.8,2471.486,13.29,0.017,317.3
2023-11-01T03:04:03,42.805,6.029,0.004,0.011,0.013,100.0,101.0,101.0,13.3,1505.2,358.0,-0.8,1.8,2471.516,13.29,0.011,20.0
2023-11-01T03:07:03,42.805,6.029,0.039,0.001,0.009,101.0,102.0,100.0,13.4,1505.2,341.8,-0.8,1.8,2471.507,13.29,0.039,88.5
2023-11-01T03:10:03,42.805,6.029,-0.001,0.021,-0.02,101.0,100.0,101.0,13.3,1505.2,351.4,-0.8,1.8,2471.505,13.29,0.021,357.3
2023-11-01T03:13:03,42.805,6.029,0.017,0.031,0.006,101.0,102.0,101.0,13.3,1505.2,334.5,-0.7,1.8,2471.505,13.29,0.035,28.7
2023-11-01T03:16:03,42.805,6.029,0.003,0.007,-0.027,101.0,102.0,100.0,13.3,1505.2,354.6,-0.8,1.8,2471.517,13.29,0.007,23.2
2023-11-01T03:19:03,42.805,6.029,-0.006,0.006,-0.028,101.0,103.0,101.0,13.4,1505.2,341.8,-0.8,1.8,2471.486,13.29,0.008,315.0
2023-11-01T03:22:03,42.805,6.029,0.019,0.021,0.002,100.0,103.0,100.0,13.3,1505.2,353.2,-0.8,1.8,2471.473,13.29,0.028,42.1
2023-11-01T03:25:03,42.805,6.029,-0.006,0.005,-0.007,100.0,101.0,100.0,13.4,1505.2,331.5,-0.8,1.8,2471.486,13.29,0.007,309.8
2023-11-01T03:28:03,42.805,6.029,0.016,0.04,0.023,100.0,101.0,101.0,13.4,1505.2,0.9,-0.8,1.8,2471.487,13.29,0.043,21.8
2023-11-01T03:31:03,42.805,6.029,-0.006,0.025,-0.002,101.0,102.0,101.0,13.4,1505.2,335.0,-0.8,1.8,2471.457,13.29,0.025,346.5
2023-11-01T03:34:03,42.805,6.029,-0.005,0.009,-0.037,101.0,101.0,101.0,13.3,1505.2,333.0,-0.8,1.8,2471.498,13.29,0.01,330.9
2023-11-01T03:37:03,42.805,6.029,-0.015,0.022,-0.014,100.0,101.0,101.0,13.3,1505.2,335.2,-0.7,1.8,2471.464,13.29,0.026,325.7
2023-11-01T03:40:03,42.805,6.029,-0.003,0.033,-0.031,102.0,101.0,101.0,13.4,1505.2,341.2,-0.8,1.8,2471.457,13.29,0.033,354.8
2023-11-01T03:43:03,42.805,6.029,-0.013,0.033,-0.015,101.0,101.0,101.0,13.4,1505.2,341.8,-0.8,1.8,2471.471,13.29,0.035,338.5
2023-11-01T03:46:03,42.805,6.029,-0.004,0.017,-0.02,101.0,100.0,101.0,13.4,1505.2,352.6,-0.8,1.8,2471.459,13.29,0.017,346.8
2023-11-01T03:49:03,42.805,6.029,0.004,0.03,0.03,100.0,101.0,101.0,13.4,1505.2,345.5,-0.8,1.8,2471.49,13.29,0.03,7.6
2023-11-01T03:52:03,42.805,6.029,-0.002,0.016,-0.003,101.0,101.0,101.0,13.4,1505.2,351.0,-0.8,1.8,2471.483,13.29,0.016,352.9
2023-11-01T03:55:03,42.805,6.029,-0.007,0.035,0.011,100.0,104.0,101.0,13.4,1505.2,342.0,-0.8,1.8,2471.487,13.29,0.035,348.7
2023-11-01T03:58:03,42.805,6.029,0.0,0.022,-0.016,102.0,101.0,100.0,13.4,1505.2,359.1,-0.8,1.8,2471.474,13.29,0.022,0.0
2023-11-01T04:04:03,42.805,6.029,0.0,0.028,0.004,101.0,102.0,100.0,13.4,1505.2,346.8,-0.8,1.8,2471.512,13.29,0.028,0.0
2023-11-01T04:07:03,42.805,6.029,-0.005,0.024,-0.004,103.0,100.0,102.0,13.3,1505.2,343.7,-0.8,1.8,2471.508,13.29,0.024,348.2
2023-11-01T04:10:03,42.805,6.029,0.017,0.026,0.028,101.0,102.0,101.0,13.4,1505.2,339.5,-0.7,1.8,2471.531,13.29,0.031,33.2
2023-11-01T04:13:03,42.805,6.029,-0.022,0.031,-0.046,101.0,101.0,100.0,13.3,1505.2,333.8,-0.7,1.8,2471.519,13.29,0.038,324.6
2023-11-01T04:16:03,42.805,6.029,-0.007,0.047,-0.007,101.0,99.0,101.0,13.4,1505.2,350.7,-0.8,1.8,2471.476,13.29,0.047,351.5
2023-11-01T04:19:03,42.805,6.029,0.005,0.025,-0.034,100.0,102.0,101.0,13.3,1505.2,349.2,-0.7,1.9,2471.512,13.29,0.025,11.3
2023-11-01T04:22:03,42.805,6.029,-0.046,0.024,-0.044,101.0,101.0,100.0,13.3,1505.2,333.0,-0.8,1.8,2471.466,13.29,0.051,297.6
2023-11-01T04:25:03,42.805,6.029,0.015,-0.002,-0.031,101.0,100.0,101.0,13.3,1505.2,0.0,-0.8,1.8,2471.489,13.29,0.015,97.6
2023-11-01T04:28:03,42.805,6.029,0.005,0.015,0.005,103.0,100.0,101.0,13.3,1505.2,335.0,-0.8,1.8,2471.497,13.29,0.015,18.4
2023-11-01T04:31:03,42.805,6.029,0.016,0.022,0.026,100.0,101.0,101.0,13.3,1505.2,359.0,-0.8,1.8,2471.5,13.29,0.027,36.0
2023-11-01T04:34:03,42.805,6.029,0.01,0.015,-0.002,102.0,101.0,101.0,13.3,1505.2,343.7,-0.8,1.8,2471.488,13.29,0.018,33.7
2023-11-01T04:37:03,42.805,6.029,-0.019,0.036,-0.004,101.0,101.0,101.0,13.4,1505.2,339.7,-0.8,1.8,2471.476,13.29,0.04,332.2
2023-11-01T04:40:03,42.805,6.029,0.014,0.033,-0.016,103.0,98.0,100.0,13.4,1505.2,356.5,-0.8,1.8,2471.498,13.29,0.035,23.0
2023-11-01T04:43:03,42.805,6.029,-0.007,0.044,-0.007,100.0,102.0,102.0,13.4,1505.2,346.6,-0.7,1.8,2471.494,13.29,0.044,351.0
2023-11-01T04:46:03,42.805,6.029,0.006,0.064,0.047,102.0,100.0,100.0,13.4,1505.2,352.0,-0.8,1.8,2471.464,13.29,0.064,5.4
2023-11-01T04:49:03,42.805,6.029,0.007,0.009,-0.01,101.0,102.0,100.0,13.3,1505.2,352.1,-0.7,1.8,2471.534,13.29,0.011,37.9
2023-11-01T04:52:03,42.805,6.029,0.006,0.015,-0.064,102.0,100.0,101.0,13.4,1505.2,334.6,-0.7,1.8,2471.481,13.29,0.016,21.8
2023-11-01T04:55:03,42.805,6.029,-0.02,0.037,0.002,101.0,102.0,101.0,13.3,1505.2,334.5,-0.8,1.8,2471.5,13.29,0.042,331.6
2023-11-01T04:58:03,42.805,6.029,0.014,0.032,-0.019,100.0,102.0,102.0,13.4,1505.2,0.0,-0.8,1.8,2471.498,13.29,0.034,23.6
2023-11-01T05:04:03,42.805,6.029,-0.003,-0.001,-0.036,101.0,103.0,100.0,13.4,1505.2,342.3,-0.8,1.8,2471.581,13.29,0.003,251.6
2023-11-01T05:07:03,42.805,6.029,0.024,0.021,-0.001,100.0,101.0,101.0,13.3,1505.2,358.0,-0.8,1.8,2471.548,13.29,0.031,48.8
2023-11-01T05:10:03,42.805,6.029,-0.002,0.023,-0.059,102.0,102.0,101.0,13.4,1505.2,340.7,-0.8,1.8,2471.562,13.29,0.023,355.0
2023-11-01T05:13:03,42.805,6.029,0.009,0.004,-0.035,101.0,101.0,100.0,13.3,1505.2,350.2,-0.8,1.8,2471.554,13.29,0.009,66.0
2023-11-01T05:16:03,42.805,6.029,0.011,0.027,0.013,101.0,100.0,100.0,13.3,1505.2,352.0,-0.7,1.8,2471.524,13.29,0.029,22.2
2023-11-01T05:19:03,42.805,6.029,0.003,0.04,-0.006,101.0,101.0,101.0,13.4,1505.2,353.3,-0.7,1.8,2471.542,13.29,0.04,4.3
2023-11-01T05:22:03,42.805,6.029,-0.006,0.031,0.0,100.0,102.0,100.0,13.4,1505.2,338.7,-0.8,1.8,2471.52,13.29,0.031,349.0
2023-11-01T05:25:03,42.805,6.029,-0.016,0.048,-0.031,102.0,101.0,100.0,13.4,1505.2,351.3,-0.8,1.8,2471.56,13.29,0.05,341.6
2023-11-01T05:28:03,42.805,6.029,-0.029,0.034,-0.058,102.0,102.0,100.0,13.4,1505.2,332.2,-0.8,1.8,2471.527,13.29,0.044,319.5
2023-11-01T05:31:03,42.805,6.029,0.028,0.027,-0.003,99.0,102.0,101.0,13.4,1505.2,352.1,-0.8,1.8,2471.54,13.29,0.038,46.0
2023-11-01T05:34:03,42.805,6.029,-0.004,0.006,-0.037,103.0,101.0,101.0,13.3,1505.2,345.1,-0.7,1.8,2471.557,13.29,0.007,326.3
2023-11-01T05:37:03,42.805,6.029,0.002,0.009,-0.051,101.0,102.0,100.0,13.4,1505.2,351.1,-0.8,1.8,2471.534,13.29,0.009,12.5
2023-11-01T05:40:03,42.805,6.029,-0.008,0.02,-0.03,104.0,100.0,101.0,13.4,1505.2,346.1,-0.8,1.8,2471.539,13.29,0.021,338.2
2023-11-01T05:43:03,42.805,6.029,0.015,0.018,0.003,101.0,100.0,101.0,13.3,1505.2,357.9,-0.8,1.8,2471.566,13.29,0.023,39.8
2023-11-01T05:46:03,42.805,6.029,-0.005,0.015,-0.03,100.0,101.0,101.0,13.4,1505.2,344.5,-0.8,1.9,2471.578,13.29,0.015,341.6
2023-11-01T05:49:03,42.805,6.029,0.012,0.032,-0.02,102.0,100.0,100.0,13.4,1505.2,341.0,-0.8,1.8,2471.562,13.29,0.034,20.6
2023-11-01T05:52:03,42.805,6.029,0.038,-0.01,-0.006,101.0,101.0,101.0,13.3,1505.2,357.3,-0.8,1.8,2471.543,13.29,0.039,104.7
2023-11-01T05:55:03,42.805,6.029,0.009,0.035,0.008,100.0,102.0,100.0,13.4,1505.2,349.4,-0.8,1.8,2471.549,13.29,0.036,14.4
2023-11-01T05:58:03,42.805,6.029,-0.01,0.026,-0.005,101.0,101.0,101.0,13.4,1505.2,349.6,-0.8,1.8,2471.578,13.29,0.027,339.0
2023-11-01T06:04:03,42.805,6.029,0.001,0.024,-0.029,100.0,102.0,100.0,13.3,1505.2,356.4,-0.8,1.8,2471.631,13.29,0.024,2.4
2023-11-01T06:07:03,42.805,6.029,0.013,0.035,-0.009,101.0,100.0,100.0,13.3,1505.2,343.2,-0.8,1.8,2471.588,13.29,0.037,20.4
2023-11-01T06:10:03,42.805,6.029,-0.026,0.047,0.017,100.0,102.0,100.0,13.3,1505.2,332.1,-0.8,1.8,2471.643,13.29,0.053,331.0
2023-11-01T06:13:03,42.805,6.029,0.019,0.018,-0.008,101.0,101.0,101.0,13.3,1505.2,343.3,-0.8,1.8,2471.61,13.29,0.026,46.5
2023-11-01T06:16:03,42.805,6.029,0.032,0.01,-0.003,101.0,101.0,100.0,13.4,1505.2,352.4,-0.8,1.8,2471.627,13.29,0.033,72.6
2023-11-01T06:19:03,42.805,6.029,0.009,0.038,0.037,101.0,100.0,101.0,13.3,1505.2,352.1,-0.7,1.8,2471.596,13.29,0.039,13.3
2023-11-01T06:22:03,42.805,6.029,-0.016,0.025,-0.061,100.0,102.0,101.0,13.3,1505.2,345.0,-0.8,1.8,2471.621,13.29,0.029,327.4
2023-11-01T06:25:03,42.805,6.029,-0.027,0.002,-0.07,102.0,100.0,100.0,13.4,1505.2,335.0,-0.8,1.8,2471.614,13.29,0.027,274.2
2023-11-01T06:28:03,42.805,6.029,0.035,0.028,0.001,101.0,102.0,100.0,13.4,1505.2,359.0,-0.8,1.8,2471.612,13.29,0.044,51.3
2023-11-01T06:31:03,42.805,6.029,-0.017,0.024,-0.049,102.0,101.0,100.0,13.3,1505.2,334.9,-0.7,1.8,2471.622,13.29,0.029,324.7
2023-11-01T06:34:03,42.805,6.029,0.014,-0.014,-0.031,102.0,99.0,100.0,13.4,1505.2,358.2,-0.8,1.8,2471.571,13.29,0.019,135.0
2023-11-01T06:37:03,42.805,6.029,-0.019,0.004,-0.058,99.0,101.0,101.0,13.4,1505.2,343.1,-0.8,1.8,2471.628,13.29,0.019,281.9
2023-11-01T06:40:03,42.805,6.029,0.011,0.015,0.002,101.0,103.0,99.0,13.3,1505.2,353.2,-0.8,1.8,2471.621,13.29,0.018,36.3
2023-11-01T06:43:03,42.805,6.029,0.005,0.02,-0.023,101.0,100.0,101.0,13.4,1505.2,345.7,-0.8,1.8,2471.593,13.29,0.02,14.0
2023-11-01T06:46:03,42.805,6.029,0.01,0.013,-0.019,100.0,101.0,100.0,13.3,1505.2,352.2,-0.8,1.8,2471.67,13.29,0.016,37.6
2023-11-01T06:49:03,42.805,6.029,-0.007,0.046,-0.016,101.0,102.0,99.0,13.3,1505.2,340.8,-0.8,1.8,2471.641,13.29,0.046,351.3
2023-11-01T06:52:03,42.805,6.029,0.005,0.013,0.004,100.0,101.0,101.0,13.4,1505.2,349.8,-0.8,1.8,2471.692,13.29,0.013,21.0
2023-11-01T06:55:03,42.805,6.029,-0.008,0.039,-0.008,101.0,101.0,100.0,13.3,1505.2,346.7,-0.8,1.8,2471.666,13.29,0.039,348.4
2023-11-01T06:58:03,42.805,6.029,0.007,0.014,-0.021,102.0,101.0,101.0,13.4,1505.2,351.6,-0.8,1.8,2471.662,13.29,0.015,26.6
2023-11-01T07:04:03,42.805,6.029,0.003,0.03,-0.002,101.0,101.0,101.0,13.4,1505.2,331.5,-0.8,1.8,2471.714,13.29,0.03,5.7
2023-11-01T07:07:03,42.805,6.029,-0.002,0.029,-0.036,101.0,101.0,100.0,13.4,1505.2,339.6,-0.7,1.8,2471.713,13.29,0.029,356.1
2023-11-01T07:10:03,42.805,6.029,-0.001,0.044,0.011,102.0,101.0,100.0,13.4,1505.2,345.4,-0.8,1.8,2471.706,13.29,0.044,358.7
2023-11-01T07:13:03,42.805,6.029,0.01,0.025,0.003,100.0,101.0,101.0,13.4,1505.2,358.1,-0.8,1.8,2471.708,13.29,0.026,21.8
2023-11-01T07:16:03,42.805,6.029,0.0,0.028,0.008,100.0,102.0,101.0,13.4,1505.2,342.7,-0.8,1.8,2471.64,13.29,0.028,0.0
2023-11-01T07:19:03,42.805,6.029,-0.034,0.025,-0.086,100.0,100.0,101.0,13.4,1505.2,342.8,-0.8,1.8,2471.666,13.29,0.042,306.3
2023-11-01T07:22:03,42.805,6.029,0.017,0.008,-0.019,102.0,100.0,101.0,13.3,1505.2,0.0,-0.8,1.8,2471.687,13.29,0.018,64.8
2023-11-01T07:25:03,42.805,6.029,-0.016,0.037,-0.011,104.0,101.0,102.0,13.4,1505.2,341.2,-0.8,1.8,2471.694,13.29,0.04,336.6
2023-11-01T07:28:03,42.805,6.029,-0.009,0.019,-0.016,102.0,102.0,100.0,13.4,1505.2,342.3,-0.7,1.7,2471.673,13.29,0.021,334.7
2023-11-01T07:31:03,42.805,6.029,-0.002,0.017,-0.028,101.0,101.0,101.0,13.4,1505.2,358.0,-0.8,1.8,2471.67,13.29,0.017,353.3
2023-11-01T07:34:03,42.805,6.029,-0.004,0.032,-0.012,106.0,102.0,102.0,13.4,1505.2,345.9,-0.8,1.8,2471.693,13.29,0.032,352.9
2023-11-01T07:37:03,42.805,6.029,0.014,-0.013,-0.069,101.0,100.0,101.0,13.3,1505.2,342.1,-0.7,1.8,2471.665,13.29,0.019,132.9
2023-11-01T07:40:03,42.805,6.029,-0.002,0.028,-0.017,103.0,101.0,100.0,13.3,1505.2,356.4,-0.8,1.8,2471.697,13.29,0.028,355.9
2023-11-01T07:43:03,42.805,6.029,-0.011,0.042,-0.004,100.0,101.0,101.0,13.4,1505.2,339.1,-0.8,1.8,2471.696,13.29,0.043,345.3
2023-11-01T07:46:03,42.805,6.029,-0.013,0.05,-0.008,101.0,101.0,100.0,13.3,1505.2,352.6,-0.8,1.8,2471.665,13.29,0.051,345.4
2023-11-01T07:49:03,42.805,6.029,0.011,0.053,0.02,101.0,100.0,101.0,13.4,1505.2,341.5,-0.8,1.8,2471.692,13.29,0.054,11.7
2023-11-01T07:52:03,42.805,6.029,0.011,0.019,-0.009,101.0,100.0,100.0,13.4,1505.2,354.0,-0.8,1.8,2471.673,13.29,0.021,30.1
2023-11-01T07:55:03,42.805,6.029,-0.003,0.026,-0.025,102.0,100.0,100.0,13.4,1505.2,339.6,-0.8,1.8,2471.631,13.29,0.026,353.4
2023-11-01T07:58:03,42.805,6.029,0.026,0.026,0.0,102.0,102.0,99.0,13.4,1505.2,338.2,-0.8,1.8,2471.716,13.29,0.036,45.0
2023-11-01T08:04:03,42.805,6.029,-0.001,0.017,-0.032,102.0,100.0,101.0,13.3,1505.2,0.0,-0.8,1.8,2471.727,13.29,0.017,356.6
2023-11-01T08:07:03,42.805,6.029,0.02,0.005,-0.048,101.0,100.0,100.0,13.4,1505.2,337.3,-0.8,1.8,2471.74,13.29,0.02,76.0
2023-11-01T08:10:03,42.805,6.029,0.004,-0.002,-0.035,100.0,101.0,100.0,13.4,1505.2,346.9,-0.8,1.8,2471.737,13.29,0.004,116.6
2023-11-01T08:13:03,42.805,6.029,0.001,0.032,0.015,101.0,102.0,100.0,13.4,1505.2,336.3,-0.8,1.8,2471.726,13.29,0.032,1.8
2023-11-01T08:16:03,42.805,6.029,-0.008,0.038,-0.018,101.0,100.0,101.0,13.4,1505.2,348.0,-0.7,1.8,2471.765,13.29,0.038,348.1
2023-11-01T08:19:03,42.805,6.029,-0.009,0.005,-0.057,100.0,101.0,100.0,13.4,1505.2,344.4,-0.8,1.8,2471.743,13.29,0.01,299.1
2023-11-01T08:22:03,42.805,6.029,0.003,0.05,0.056,101.0,102.0,100.0,13.3,1505.2,333.4,-0.8,1.8,2471.696,13.29,0.05,3.4
2023-11-01T08:25:03,42.805,6.029,-0.011,0.026,-0.036,101.0,101.0,100.0,13.3,1505.2,354.7,-0.8,1.8,2471.725,13.29,0.028,337.1
2023-11-01T08:28:03,42.805,6.029,0.009,0.02,-0.04,101.0,102.0,100.0,13.4,1505.2,0.0,-0.8,1.8,2471.747,13.29,0.021,24.2
2023-11-01T08:31:03,42.805,6.029,0.018,0.001,-0.053,100.0,101.0,100.0,13.4,1505.2,340.5,-0.8,1.8,2471.7,13.29,0.018,86.8
2023-11-01T08:34:03,42.805,6.029,0.02,0.031,0.014,101.0,101.0,101.0,13.4,1505.2,333.8,-0.8,1.8,2471.727,13.29,0.036,32.8
2023-11-01T08:37:03,42.805,6.029,0.01,0.012,-0.023,102.0,101.0,101.0,13.3,1505.2,345.3,-0.8,1.8,2471.712,13.29,0.015,39.8
2023-11-01T08:40:03,42.805,6.029,0.019,0.006,-0.04,100.0,102.0,101.0,13.4,1505.2,354.1,-0.8,1.8,2471.691,13.29,0.019,72.5
2023-11-01T08:43:03,42.805,6.029,-0.017,0.027,-0.053,102.0,102.0,100.0,13.3,1505.2,345.5,-0.7,1.8,2471.731,13.29,0.031,327.8
2023-11-01T08:46:03,42.805,6.029,0.0,0.019,-0.035,103.0,101.0,101.0,13.3,1505.2,335.2,-0.8,1.8,2471.732,13.29,0.019,0.0
2023-11-01T08:49:03,42.805,6.029,-0.007,0.006,-0.043,100.0,102.0,100.0,13.4,1505.2,352.9,-0.8,1.8,2471.738,13.29,0.009,310.6
2023-11-01T08:52:03,42.805,6.029,0.002,0.037,-0.007,102.0,103.0,101.0,13.4,1505.2,341.0,-0.8,1.8,2471.76,13.29,0.037,3.1
2023-11-01T08:55:03,42.805,6.029,-0.001,0.011,0.0,103.0,100.0,100.0,13.4,1505.2,339.8,-0.8,1.8,2471.728,13.29,0.011,354.8
2023-11-01T08:58:03,42.805,6.029,0.001,0.028,-0.003,101.0,100.0,101.0,13.3,1505.2,332.6,-0.8,1.8,2471.731,13.29,0.028,2.0
2023-11-01T09:04:03,42.805,6.029,0.004,0.017,-0.03,101.0,101.0,100.0,13.4,1505.2,353.2,-0.8,1.8,2471.761,13.29,0.017,13.2
2023-11-01T09:07:03,42.805,6.029,0.005,0.018,0.003,101.0,101.0,101.0,13.3,1505.2,340.2,-0.8,1.8,2471.74,13.29,0.018,15.5
2023-11-01T09:10:03,42.805,6.029,0.013,0.046,0.007,103.0,100.0,101.0,13.4,1505.2,353.7,-0.8,1.8,2471.762,13.29,0.047,15.8
2023-11-01T09:13:03,42.805,6.029,0.0,0.023,-0.03,101.0,100.0,101.0,13.4,1505.2,347.2,-0.8,1.8,2471.787,13.29,0.023,0.0
2023-11-01T09:16:03,42.805,6.029,-0.023,0.036,-0.009,101.0,101.0,101.0,13.4,1505.2,335.5,-0.8,1.8,2471.758,13.29,0.042,327.4
2023-11-01T09:19:03,42.805,6.029,-0.027,0.033,-0.019,100.0,102.0,101.0,13.4,1505.2,348.3,-0.8,1.8,2471.76,13.29,0.042,320.7
2023-11-01T09:22:03,42.805,6.029,-0.001,0.034,0.0,100.0,101.0,100.0,13.3,1505.2,341.2,-0.8,1.8,2471.797,13.29,0.034,358.3
2023-11-01T09:25:03,42.805,6.029,0.017,0.017,-0.006,101.0,101.0,101.0,13.4,1505.2,334.5,-0.7,1.8,2471.777,13.29,0.024,45.0
2023-11-01T09:28:03,42.805,6.029,-0.006,0.01,-0.036,101.0,101.0,100.0,13.4,1505.2,358.0,-0.8,1.8,2471.781,13.29,0.011,329.0
2023-11-01T09:31:03,42.805,6.029,-0.005,0.038,-0.008,101.0,101.0,100.0,13.3,1505.2,347.4,-0.8,1.8,2471.744,13.29,0.038,352.5
2023-11-01T09:34:03,42.805,6.029,0.001,0.024,0.0,98.0,105.0,102.0,13.4,1505.2,343.8,-0.8,1.8,2471.75,13.29,0.024,2.4
2023-11-01T09:37:03,42.805,6.029,0.0,0.058,-0.003,101.0,102.0,101.0,13.3,1505.2,356.3,-0.8,1.8,2471.742,13.29,0.057,0.0
2023-11-01T09:40:03,42.805,6.029,-0.016,0.025,-0.04,101.0,101.0,101.0,13.4,1505.2,338.9,-0.8,1.8,2471.735,13.29,0.029,327.4
2023-11-01T09:43:03,42.805,6.029,-0.006,0.012,-0.029,100.0,102.0,100.0,13.3,1505.2,350.0,-0.7,1.8,2471.696,13.29,0.013,333.4
2023-11-01T09:46:03,42.805,6.029,0.012,0.004,-0.068,101.0,103.0,102.0,13.3,1505.2,333.0,-0.8,1.8,2471.748,13.29,0.012,71.6
2023-11-01T09:49:03,42.805,6.029,0.004,0.004,0.0,100.0,102.0,102.0,13.4,1505.2,349.6,-0.8,1.8,2471.717,13.29,0.005,45.0
2023-11-01T09:52:03,42.805,6.029,0.008,0.0,-0.04,103.0,100.0,102.0,13.4,1505.2,335.0,-0.7,1.8,2471.696,13.29,0.008,90.0
2023-11-01T09:55:03,42.805,6.029,0.0,0.022,-0.033,100.0,101.0,101.0,13.3,1505.2,353.2,-0.8,1.8,2471.755,13.29,0.022,0.0
2023-11-01T09:58:03,42.805,6.029,0.013,0.022,-0.006,101.0,103.0,100.0,13.3,1505.2,347.6,-0.8,1.8,2471.724,13.29,0.025,30.6
2023-11-01T10:04:03,42.805,6.029,-0.02,0.031,-0.01,101.0,101.0,101.0,13.3,1505.2,341.3,-0.8,1.8,2471.798,13.29,0.036,327.2